Tracking 25701 objects as of 4-Jul-2022
HD Live streaming from Space Station
objects crossing your sky now

COSMOS 970 DEB

Track COSMOS 970 DEB now!
10-day predictions


NORAD ID: 12869
Int'l Code: 1977-121AX
Perigee: 918.4 km
Apogee: 1,064.9 km
Inclination: 65.8 °
Period: 104.8 minutes
Semi major axis: 7362 km
RCS: 0.0101 m2 (small)
Launch date: December 21, 1977
Source: Commonwealth of Independent States (former USSR) (CIS)
Launch site: TYURATAM MISSILE AND SPACE COMPLEX (TTMTR)

Note: This is SATELLITE DEBRIS
aabbcc
Your satellite tracking list
Your tracking list is empty




NASA's NSSDC Master Catalog

Two Line Element Set (TLE):
1 12869U 77121AX  22184.69564634  .00000314  00000-0  40444-3 0  9991
2 12869  65.7907 271.7903 0099505 282.7835 233.8917 13.74201298220918
Source of the keplerian elements: AFSPC